COSMOS 886 DEB, 9651

Orbit data source: Space-Track

COSMOS 886 DEB, 9651 is space debris in LEO originally from a launch on Mon, 27 Dec 1976 UTC launched from the Tyuratam Missile And Space Complex (TTMTR). Debris objects in space refer to the collection of defunct objects orbiting the Earth. Examples of debris include non-operational satellites, rocket bodies, and fragments generated from explosions, collisions, or faulty payload assembly.

Loading next visibility...
Identifier
9651, 1976-126H
Orbit
LEO
Country
Flag of CISCIS
Related business
Manufacturer
Unknown
Mission
Spacecraft
Bus & Motor
Unknown
Mass
Unknown
Launch date (UTC)
1976-12-27 (49 years ago)
Launch vehicle
Unknown
Launch site
Tyuratam Missile And Space Complex (TTMTR)
Object type
Payload
Rocket body
Debris
Shape & HBR
Unknown shape, 0.2 m
Radar Cross Section
Medium (>0.1 m² and <1 m²)

Expand to show TLE details & history
Last TLE update: 17 hours ago

TLE from 17 hours ago
0 COSMOS 886 DEB
1 09651U 76126H   26174.92123342  .00000926  00000-0  34468-3 0  9994
2 09651  65.7910 242.2089 0775027  93.6670 275.3255 13.34637091352924
Epoch: 2026-06-23T22:06Z
TLE epoch observation values (Epoch: 2026-06-23T22:06:34.567Z)
Latitude
0.00004°
Longitude
-1.52098°
Altitude
1,122.293 km
Speed
7.296 km/s
True Right ascension
16h 08m 50s
True Declination
0° 00' 00"
Sunlit
Object was in full shadow at epoch
Visualization orbit readout
Latitude
Unknown
Longitude
Unknown
Altitude
Unknown
Speed
Unknown
Apparent Right ascension
Unknown
Apparent Declination
Unknown
Sunlit
N/A
Visualization observer readout
Local Sidereal Time
01:48:40
Azimuth
Unknown
Elevation
Unknown
Doppler factor
Unknown
Orbital elements
Apogee altitude
1,709.597 km
Perigee altitude
546.126 km
Semi-major axis
7,505.998 km
Eccentricity
0.0775
Inclination
65.791°
RAAN
242.2089°
Arg. of periapsis
93.667°
True anomaly
266.43828°
Mean anomaly
275.3255°
Eccentric anomaly
270.88545°
Mean motion
3.33757 °/min
Orbital period
107.86 mins
BSTAR
0.00034468
Loading maneuver chart data...
Computing Atmospheric mass density...

Documentation

Showing up to 5 results
|